Track LING QIAO now! 10-day predictions LING QIAO is classified as:
1 40136U 14051A 25182.91451220 .00000030 00000-0 28756-4 0 9992 2 40136 98.6912 179.7104 0021881 118.1636 242.1760 14.30182754564985